Location: Dayton
(39.7590°N, 84.1920°W)
Time: 22:48:27
(UTC-05:00)

ATLAS CENTAUR R/B - Visible Passes

Search period start: 19 December 2014 00:00
Search period end: 29 December 2014 00:00
Orbit: 250 x 9196 km, 57.4° (Epoch: 15 December)

Date Brightness Start Highest point End Pass type
(mag) Time Alt. Az. Time Alt. Az. Time Alt. Az.
19 Dec 7.5 01:10:33 35° SE 01:10:33 35° SE 01:37:00 10° SSE visible
19 Dec 7.5 04:24:36 26° SW 04:24:36 26° SW 04:53:41 10° SSW visible
19 Dec 4.9 19:49:08 10° NW 19:53:23 22° N 19:53:44 22° NNE visible
19 Dec 6.5 23:48:43 19° ESE 23:48:43 19° ESE 23:59:34 10° SE visible
20 Dec 7.4 03:02:44 37° SSW 03:02:44 37° SSW 03:35:34 10° S visible
20 Dec 4.0 18:22:41 10° WNW 18:25:30 22° NNW 18:30:57 10° NE visible
20 Dec 5.7 21:43:38 10° NW 21:44:49 17° NNW 21:44:49 17° NNW visible
21 Dec 7.5 01:40:35 36° SSE 01:40:35 36° SSE 02:08:34 10° SSE visible
21 Dec 7.8 04:54:32 16° WSW 04:54:32 16° WSW 05:10:28 10° SW visible
21 Dec 5.1 20:17:52 10° NW 20:21:46 24° N 20:21:46 24° N visible
22 Dec 6.7 00:18:09 24° SE 00:18:09 24° SE 00:34:21 10° SE visible
22 Dec 7.6 03:32:04 29° SW 03:32:04 29° SW 03:59:46 10° SSW visible
22 Dec 4.6 18:51:17 10° NW 18:54:39 20° N 18:58:29 15° NE visible
22 Dec 5.9 22:11:23 10° NW 22:12:17 15° NNW 22:12:17 15° NNW visible
23 Dec 7.6 02:09:19 34° S 02:09:19 34° S 02:36:46 10° S visible
23 Dec 5.2 20:45:16 10° NW 20:48:45 26° N 20:48:45 26° N visible
24 Dec 6.8 00:46:17 28° SSE 00:46:17 28° SSE 01:05:49 10° SSE visible
24 Dec 7.8 04:00:07 21° SW 04:00:07 21° SW 04:19:27 10° SSW visible
24 Dec 4.9 19:18:36 10° NW 19:22:49 21° NNE 19:24:59 19° NNE visible
24 Dec 6.1 22:38:01 10° NW 23:22:58 14° SE 23:27:49 10° SE visible
25 Dec 7.7 02:36:45 30° SSW 02:36:45 30° SSW 03:01:36 10° S visible
25 Dec 4.1 17:50:56 10° WNW 17:53:38 20° N 17:58:41 10° NE visible
25 Dec 5.3 21:11:28 10° NW 21:14:42 28° NNW 21:14:42 28° NNW visible
26 Dec 7.7 01:13:05 29° SSE 01:13:05 29° SSE 01:34:05 10° SSE visible
26 Dec 8.0 04:26:50 12° SW 04:26:50 12° SW 04:32:35 10° SW visible
26 Dec 5.1 19:44:33 10° NW 19:49:52 25° NNE 19:50:27 25° NNE visible
26 Dec 6.2 23:03:36 10° NW 23:49:08 18° SE 23:59:05 10° SE visible
27 Dec 7.8 03:02:50 24° SSW 03:02:50 24° SSW 03:22:49 10° SSW visible
27 Dec 4.6 18:16:51 10° NW 18:20:02 18° N 18:25:57 10° NE visible
27 Dec 5.4 21:36:30 10° NW 21:39:37 29° NNW 21:39:37 29° NNW visible
28 Dec 7.8 01:38:32 28° S 01:38:32 28° S 01:59:15 10° S visible
28 Dec 5.1 20:09:13 10° NNW 20:14:54 30° NNE 20:14:54 30° NNE visible
28 Dec 6.4 23:28:10 10° NW 23:28:30 12° NW 23:28:30 12° NW visible
